User: anonymous   Login
Location: Unspecified
(0.0000°N, 0.0000°E)
Time: 03:36:16
(UTC+00:00)
Language:

NUDT-PHONESAT - Orbit

View from above orbital plane
View from above orbital plane
View from above satellite
View from above satellite

Ground track
Ground track

The orbit data is extracted from the following two-line orbital elements,

1 40900U 15049B   17112.91201726 +.00006841 +00000-0 +32834-3 0  9994
2 40900 097.4441 121.6288 0015836 062.5824 297.7019 15.19078158088064
Epoch (UTC): 22 April 2017 21:53:18
Eccentricity: 0.0015836
inclination: 97.4441°
perigee height: 498 km
apogee height: 519 km
right ascension of ascending node: 121.6288°
argument of perigee: 62.5824°
revolutions per day: 15.19078158
mean anomaly at epoch: 297.7019°
orbit number at epoch: 8806

The dashed part of the orbit path shows where the satellite is in the earth's shadow,  

DLR